カタログに戻る

COSMOS 2499 DEB

運用中PO
NORAD 55722·DEBRIS·🇷🇺 Russia

打ち上げ May 23, 2014 から Plesetsk Cosmodrome

Loading…

次のパス (今後24時間)

TLE

経年Source: Space-Track

元期: Sep 3, 2026, 14:14 UTC

1 55722U 14028AJ  26246.59360392  .00001461  00000-0  59846-2 0  9999
2 55722  82.3593 197.2106 0116767 210.1476 149.2872 12.82539607 92410

AllMySatでCOSMOS 2499 DEBをリアルタイム追跡

Download on the App Store